Riverside March, CA

3:37 AM PDT on May 28, 2018 (GMT -0700)
March Air Reserve Base

Weather History for KRIV - July, 2013

Change the Weather History Date:

Tuesday, July 30, 2013

  Actual Average Record
Temperature  
Mean Temperature 74 °F -  
Max Temperature 88 °F 91 °F 102 °F (1996)
Min Temperature 59 °F 60 °F 55 °F (1997)
Cooling Degree Days 8    
Growing Degree Days 24 (Base 50)    
Moisture  
Dew Point 59 °F    
Average Humidity 67    
Maximum Humidity 100    
Minimum Humidity 37    
Precipitation  
Precipitation 0.00 in - - ()
Sea Level Pressure  
Sea Level Pressure 30.05 in    
Wind  
Wind Speed 5 mph (WNW)    
Max Wind Speed 13 mph    
Max Gust Speed -    
Visibility 10 miles    
Events      
Averages and records for this station are not official NWS values.
T = Trace of Precipitation, MM = Missing Value Source: NWS Daily Summary

Daily Weather History Graph

Daily Weather History Graph

Search for Another Location

Airport or City:

Astronomy

Jul. 30, 2013 Rise Set
Actual Time 5:59 AM PDT 7:50 PM PDT
Civil Twilight 5:32 AM PDT 8:18 PM PDT
Nautical Twilight 4:58 AM PDT 8:51 PM PDT
Astronomical Twilight 4:23 AM PDT 9:26 PM PDT
Moon 12:18 AM PDT (7/30) 2:16 PM PDT (7/30)
Length of Visible Light 14h 46m
Length of Day
13h 51m
Last Quarter, 40% of the Moon is Illuminated
Jul 30
Last Quarter
Aug 6
New
Aug 14
First Quarter
Aug 20
Full
Aug 28
Last Quarter

Hourly Weather History & Observations

Time (PDT) Temp. Heat Index Dew Point Humidity Pressure Visibility Wind Dir Wind Speed Gust Speed Precip Events Conditions
12:58 AM 63.1 °F - 58.3 °F 84% 30.03 in 10.0 mi NW 1.2 mph - N/A   Clear
1:58 AM 61.7 °F - 58.8 °F 90% 30.03 in 10.0 mi WNW 4.6 mph - N/A   Clear
2:58 AM 60.4 °F - 58.5 °F 93% 30.03 in 10.0 mi West 3.5 mph - N/A   Clear
3:58 AM 59.5 °F - 58.8 °F 97% 30.04 in 10.0 mi WNW 4.6 mph - N/A   Clear
4:58 AM 59.2 °F - 59.2 °F 100% 30.05 in 10.0 mi West 4.6 mph - N/A   Clear
5:58 AM 59.4 °F - 59.4 °F 100% 30.06 in 10.0 mi NNW 4.6 mph - N/A   Clear
6:58 AM 60.8 °F - 60.8 °F 100% 30.07 in 10.0 mi NW 3.5 mph - N/A   Clear
7:58 AM 64.4 °F - 59.9 °F 85% 30.09 in 10.0 mi Variable 3.5 mph - N/A   Clear
8:58 AM 68.5 °F - 60.4 °F 75% 30.09 in 10.0 mi Variable 4.6 mph - N/A   Clear
9:58 AM 73.0 °F - 60.4 °F 65% 30.09 in 10.0 mi Variable 1.2 mph - N/A   Clear
10:58 AM 78.3 °F - 61.2 °F 56% 30.09 in 10.0 mi Variable 6.9 mph - N/A   Clear
11:58 AM 80.8 °F 81.3 °F 59.5 °F 48% 30.07 in 10.0 mi NNW 6.9 mph - N/A   Clear
12:58 PM 83.7 °F 83.1 °F 57.6 °F 41% 30.06 in 10.0 mi WNW 9.2 mph - N/A   Clear
1:58 PM 86.2 °F 85.9 °F 59.7 °F 41% 30.04 in 10.0 mi Variable 6.9 mph - N/A   Clear
2:58 PM 87.8 °F 87.4 °F 59.7 °F 39% 30.03 in 10.0 mi NW 10.4 mph - N/A   Clear
3:58 PM 88.3 °F 87.6 °F 58.6 °F 37% 30.02 in 10.0 mi WNW 11.5 mph - N/A   Clear
4:58 PM 87.4 °F 86.7 °F 58.6 °F 38% 30.00 in 10.0 mi NW 12.7 mph - N/A   Clear
5:58 PM 84.4 °F 83.7 °F 57.4 °F 40% 30.00 in 10.0 mi NW 12.7 mph - N/A   Clear
6:58 PM 80.1 °F 80.6 °F 57.9 °F 47% 30.01 in 10.0 mi WNW 12.7 mph - N/A   Clear
7:58 PM 74.1 °F - 57.2 °F 55% 30.03 in 10.0 mi WNW 10.4 mph - N/A   Clear
8:58 PM 70.3 °F - 57.0 °F 63% 30.05 in 10.0 mi NW 6.9 mph - N/A   Clear
9:58 PM 67.5 °F - 57.0 °F 69% 30.07 in 10.0 mi WNW 8.1 mph - N/A   Clear
10:58 PM 64.9 °F - 56.7 °F 74% 30.08 in 10.0 mi WNW 4.6 mph - N/A   Clear
11:58 PM 63.5 °F - 56.5 °F 78% 30.08 in 10.0 mi WNW 3.5 mph - N/A   Clear